Mitgliederbereich
Imprimable
Wissant, 09-10/09/2017, BEL - Trail de la Côte d'Opale
Liste der Berichte > 62km - Ergebnis
Suche: Seite: [1]
204 Eingaben
 
Les réclamations ne sont plus acceptées, les résultats sont considérés comme définitifs.
PlatzNrLicenceNameAgeNATMannschaftZeitTkmMoy.ScrStadt
1.65327506BREUIL Thierry45FRATEAM KALENJI4:42:084:34 13.191
2.88111895BORDET Dominique49FRAOLYMPIQUE GRANDE SYNTHE A5:08:394:59 12.056
3.3521188139BOWIE Michel46FRAMY-TRAIL5:16:405:07 11.7510
4.627BEYLS Aymeric41FRA5:24:175:14 11.4712
5.411651938LIMOUSIN Stephane44FRAPATRIOTE CROSS DE GUINES5:34:365:24 11.1220
6.439MOISSON Jean-Francois43FRAATHLÉ RUNNING5:45:295:35 10.7726
7.219FACQ Grégory41FRA5:52:365:42 10.5530
8.691DESERT Fabien43FRA5:53:015:42 10.5432
9.6201699632BOULANGER David48FRATOUQUET TRAIL NATURE5:58:085:47 10.3935
10.443LABRADOR Juan Carlos43FRABLARINGHEM TRAIL6:06:055:55 10.1640
11.429VERBRUGGHE Xavier45FRA6:07:465:56 10.1244
12.116BLONDEEL David40FRAAS ETAPLES TRIATHLON6:09:435:58 10.0647
13.670BOUCHERY Remi43FRATRIATHLON LITTORAL 596:14:506:03 9.9250
14.259GARCIA Boris40FRA6:16:356:05 9.8853
15.415RICHARD Réginald44FRA6:17:166:06 9.8654
16.2021393224BRETON Christophe46USAASMA6:20:086:08 9.7958
17.578LHOMME Laurent41FRAJSG JOGGING6:21:076:09 9.7662
18.4301637578DE MEERSCHMAN Sebastien44FRAHEM AC6:22:436:11 9.7265
19.421GONGORA Sébastien43FRABLARINGHEM TRAIL6:23:346:12 9.7067
20.332MAILLOT Patrice40FRACAP COIGNIÈRES6:24:556:13 9.6668
21.1701526304KOLODZIEJCZYK Francois47FRATRAIL MAN 606:29:206:17 9.5675
22.105ROUSSELOT Olivier47FRA6:29:446:18 9.5576
23.594COLOMB Bertrand42FRA6:30:036:18 9.5479
24.597MENET Eric49FRA6:32:046:20 9.4980
25.96DUPONT François45FRA6:34:546:23 9.4282
26.440STRECK Jean-Philippe41FRA6:36:476:24 9.3884
27.180GUETEMME Gilles47FRA6:38:526:26 9.3388
28.342BOUDRY Stephane47FRA6:41:226:29 9.2795
29.284D'HALLENDRE Charles40FRA6:42:116:30 9.2597
30.38T301616DEBUYZER Arnaud45FRAPASS J'AIME COURIR6:42:226:30 9.2599
31.358DUBOIS Julien40FRA0@THETREE6:42:376:30 9.24101
32.661LIEKENS Denis48FRA6:44:226:32 9.20104
33.51197460DUMORTIER Benjamin41FRAVAFA FRETIN6:45:276:33 9.18108
34.5261448669MENUGE Laurent49FRATOUQUET TRAIL NATURE6:45:526:33 9.17109
35.232VERMOESEN Philippe48BEL6:47:486:35 9.12113
36.205DOS SANTOS AMARAL Paulo47FRA6:49:566:37 9.07116
37.6261277705TESSIER Laurent45FRAA.S. MARCK6:50:016:37 9.07117
38.672CABARDOS Rene46FRA6:50:266:38 9.06118
39.662LACROIX Christophe45FRAESTRUN DE BON PIED6:52:546:40 9.01123
40.215PICHA Charley40FRA6:52:586:40 9.01124
41.499PREVOST Yannick40FRA6:55:156:42 8.96126
42.334BREQUEVILLE David46FRA6:56:066:43 8.94129
43.196MOTTEZ Paul41FRA6:58:156:45 8.89134
44.250PLUVINAGE Christophe43FRA6:58:296:45 8.89135
45.3SPILLIAERT Bruno49DECATHLON ST-MARTIN6:58:416:46 8.89138
46.446LEMIRE Benjamin41FRA7:03:226:50 8.79148
47.447LEMIRE Sebastien43FRA7:03:236:50 8.79149
48.100GOUZOUGUEN Cedric40FRA7:04:436:52 8.76152
49.164ROSEY Christophe46FRA7:04:566:52 8.75154
50.603BEAUDET Fabrice47FRA7:05:446:52 8.74156
51.132LEDUC Gregory41FRA7:06:276:53 8.72158
52.653PIERARD Alexandre41BELCOUREURS CÉLESTES7:07:056:54 8.71160
53.674DUDOIGNON Karl40FRA7:07:156:54 8.71161
54.510BELLOIR Yoann41FRA7:07:496:55 8.70164
55.6921550800BODO Thierry49FRAACSA7:09:056:56 8.67165
56.228WATTIEZ Christophe40BELLES POTES O MALTES7:10:056:57 8.65167
57.602VANDENBUSSCHE Sébastien42FRACE TRANSPOLE7:10:416:57 8.64168
58.488GIRARD Martin44FRA7:11:496:58 8.61170
59.214MOLLET Xavier49FRA7:12:176:59 8.61172
60.260TESSE Romain40FRA7:12:286:59 8.60173
61.186LOUIS Laurent45FRA7:13:177:00 8.59175
62.569462236WOJTKOWIAK Frederic45FRAOA HAZEBROUCK7:13:587:00 8.57179
63.555LEMATTRE Dominique47FRA7:15:597:02 8.53184
64.175304964GHEERARDYN Franck48FRA7:17:097:04 8.51191
65.611942472ASTORGA Sebastien44FRARONCHIN ATHLÉTIC CLUB7:17:207:04 8.51195
66.39BRAYE Laurent46BEL7:17:457:04 8.50197
67.24DUPLA Laurent47FRASOUCHEZ7:17:517:04 8.50198
68.705PERRAULT David46FRA7:19:407:06 8.46203
69.586FREZE Antoine40FRA7:20:037:06 8.45206
70.435BUISINE David41FRA7:20:397:07 8.44212
71.258SCHULSSE Thierry46BELRUNNING TEAM CONDROZ MARC7:20:507:07 8.44217
72.131BERNIER David47FRACAP COIGNIERES 787:21:237:08 8.43221
73.335LAUWERS Ludovic47FRA7:22:407:09 8.40224
74.506BONDUAU Sébastien41FRA7:22:407:09 8.40225
75.504MONBAILLEU Filip47BEL7:22:577:09 8.40227
76.605TOP Emmanuel42FRA7:24:137:10 8.37234
77.45GOURDAIN Franck43FRADEULE7:24:147:10 8.37235
78.680BORDIER Karl42FRAS/L JANZE ATLHETISME7:24:257:11 8.37236
79.101614776GUILBERT Mickael45FRAFREE RUNNERS LE CLUB7:25:087:11 8.36237
80.463FICHEUX David43FRARUNNER QUAKER7:25:427:12 8.35238
81.21YOUSFI Karim49FRA7:26:377:13 8.33241
82.682PINA BORGES Julio48FRA7:27:437:14 8.31243
83.549LEBLANC Gerald45FRA7:28:307:15 8.29244
84.178LOTE Mickael40FRASFR7:28:387:15 8.29245
85.236NAWROCKI Christian48FRARISQUE TOUT7:28:397:15 8.29248
86.158LIERMANN Christophe44FRA7:30:167:16 8.26251
87.585KYNDT Dany49FRAMUVRINI7:30:177:16 8.26252
88.581PALGEN Olivier41BEL7:31:167:17 8.24256
89.481248505FIEROBE Thierry48FRACOURIR POUR DES POMMES7:31:207:17 8.24257
90.713CRANDAL Christophe45FRA7:33:367:19 8.20263
91.246BAVIERE Fabien48FRA7:34:227:20 8.19264
92.11FEYS Emmanuel41FRA7:34:257:20 8.19266
93.5501005054METTIER Jean-Francois45FRASPORT PLUS7:37:487:24 8.13276
94.25CAINE Frederic45FRA7:39:407:25 8.09284
95.171CARRE Mathieu40FRA7:40:107:26 8.08286
96.424T302193BERNICOT Olivier47FRAFAW7:43:077:29 8.03292
97.208FICKERS Frederic46FRA7:44:077:30 8.02297
98.469TOLBECQ Stephane41BELSWIFT RUNNING CLUB7:44:417:30 8.01299
99.7MOREELS Olivier44FRA7:45:107:31 8.00300
100.245LABALETTE Ludovic44FRA7:45:367:31 7.99303
101.534CRESPIN Nicolas42FRA7:46:577:32 7.97308
102.162DELELIS Ludovic44FRA7:47:237:33 7.96312
103.677DUBARRY David43FRARUNNERS EN NORD7:47:237:33 7.96313
104.331NGHI David42FRA7:47:237:33 7.96315
105.22BLAS Gregory41FRA7:48:497:34 7.93323
106.517VANDEWIELE David40FRATEAM UR7:49:007:34 7.93324
107.226CARLIER Franck43FRA7:51:517:37 7.88329
108.323RIGAUT Laurent47FRA7:52:137:37 7.88331
109.500GRATEPANCHE Christian49FRACOURIR À BAISIEUX7:52:237:38 7.88333
110.648NOTTELLET Marc48FRA7:52:497:38 7.87334
111.227MAURIAUCOURT Tony45FRA7:54:467:40 7.84338
112.212CHABAS Emmanuel41FRA7:55:147:40 7.83339
113.512DUCHATEAU Rene49BEL7:55:207:40 7.83340
113.3561183702MARCINIAK Roger46FRAFFA AVION7:55:207:40 7.83340
115.125CHANTRAINE Fabrice45FRA7:57:117:42 7.80345
116.146RIEM Claude44FRA7:57:397:43 7.79347
117.595SABLON Emmanuel45FRA7:58:027:43 7.78351
118.140BOUCHER Nicolas44FRA7:58:097:43 7.78352
119.580EVRARD Hugues41BEL7:58:297:44 7.77355
120.75LAURENT Bernard45FRA7:58:397:44 7.77357
121.199MEURIST Joel46BELTEMPLEUVE7:59:147:44 7.76361
122.122BRICOTTE Ludovic43FRA7:59:447:45 7.75363
123.2801871414DUNAND Ludovic41FRARÉVEIL ATHLÉTIQUE CLUB BR8:00:587:46 7.73365
124.267HAEGELIN Cedric41FRA8:02:097:47 7.72368
125.93DACQUIN Fabrice49FRA8:02:387:48 7.71370
126.109THIBEAU Nicolas41FRADAWA TEAM RACE8:02:507:48 7.70372
127.523WALRYCK Olivier48FRA8:04:407:50 7.68375
128.174ALLANO Gilles47FRAREYDEL8:05:177:50 7.67378
129.714MANGOT Matthieu40FRA8:05:437:51 7.66379
130.129LAMBERT David43FRA8:06:397:51 7.64380
131.54BAUCHART Jerome43FRALES PIEDS MOBILES8:07:547:53 7.62381
132.265DESCAMPS Gregory42FRA8:09:427:54 7.60388
133.720CAPAI Vivien40FRAXTREM CHALENGES SENLIS8:10:377:55 7.58390
134.216D'HALLEWIN Hubert47FRA8:11:027:56 7.58392
135.577SINNESAEL Xavier45FRA8:11:157:56 7.57393
136.67ROSE Philippe47FRA8:12:197:57 7.56398
137.57MAROUX Luc41FRA8:12:197:57 7.56399
138.72DEPINOY Jeoffrey46FRAMTJ8:13:057:58 7.54401
139.416DEWAULLE Christophe40FRATEAM TRIATHLON MAUBEUGE8:13:497:58 7.53404
140.438DOMINGUES Daniel43FRATEAM TRIATHLON MAUBEUGE8:13:497:58 7.53405
141.333PANNEQUIN Serge49FRAMARATHON DU SOLEIL8:14:227:59 7.52408
142.159COLPAERT Samuel42FRALES FOULÉES HOUPLINOISES8:15:158:00 7.51409
143.111PAU Stéphane47FRA8:15:168:00 7.51410
144.502DANIELEWSKI Regis47FRA8:16:068:01 7.50412
145.563BOIN Jessy42FRA8:18:328:03 7.46415
146.63VANDOOREN Michel45FRARCATRI ARRAS8:19:008:03 7.46416
147.629HALIPRÉ Laurent47FRALES FOULÉES LOONOISE8:20:248:05 7.43418
148.507BERMOND Carol46FRAXTREM CHALENGES SENLIS8:20:348:05 7.43419
149.85GAUVAIN Pascal46BELJOGGING HAM-SUR-HEURE8:20:448:05 7.43420
150.56MOROY Christophe40FRAKEEP COOL CSB8:21:358:06 7.42421
151.604DUBAELE Laurent42FRA8:22:328:07 7.40424
152.516HERMANT Yannick40FRA8:23:258:08 7.39426
153.235VAN WOENSEL Gérald45FRA8:24:318:09 7.37429
154.489GOETHALS Christophe48FRA8:24:498:09 7.37431
155.274ANSART Jean-Marie44FRATCLIÉVIN8:25:388:10 7.36432
156.543LEROUX Jérôme44FRA8:27:548:12 7.32441
157.781585312WANDERSCHEID Jonathan41FRAHAC8:28:408:13 7.31447
158.715DEBUS Sylvain46FRARUNNERS EN NORD8:28:528:13 7.31449
159.221WROBEL Fabrice42FRA8:29:218:13 7.30451
160.193VALERE Frédéric49FRAVALEF TRAIL TEAM8:31:158:15 7.28454
161.354DANTIGNY Florent42FRAVILLENEUVE D'ASCQ TRIATHL8:31:318:16 7.27456
162.127MARQUETTE Jean Paul43FRA8:33:218:17 7.25461
163.204BLONDEAU Marc45FRAAJCFRELINGHIEN8:34:368:18 7.23462
164.565CARPENTIER Fabien44FRAGERFLOR RUNNING8:35:448:20 7.21463
165.183VERMOOTE Frederic45FRA8:36:418:21 7.20467
166.169MAYEUR Jérôme43FRALES COUREURS DU LOUP BLAN8:37:468:22 7.18474
167.716BLONDEEL Benoit41FRA8:37:508:22 7.18475
168.503LUCAS Bertrand40FRACAP COIGNIÈRES8:39:098:23 7.17476
169.501ANDRIEUX Sylvain47FRACAP COIGNIERES8:39:108:23 7.17477
170.6891864741LARCHER Sebastien44FRAS/L JANZE ATHLETISME8:42:158:26 7.12479
171.718LULKA David44FRATRAIL CLUB8:44:238:28 7.09480
172.663DECROIX Laurent41FRA8:44:238:28 7.09481
173.179HENNO Christophe43FRA8:46:228:30 7.07485
174.466WACHEUX Freddy43FRASYNEFEIA8:47:168:31 7.06488
175.4561855244LIENARD Benoit46FRADAINVILLE AC8:48:008:31 7.05491
176.609PAUTY Gregoire42FRA8:52:058:35 6.99500
177.610COUSIN Olivier42FRA8:52:068:35 6.99501
178.656D'OVIDIO Raphael41BELJOG IN ATTITUDE8:52:278:36 6.99502
179.114VANDERBERG Gérard44FRA8:53:268:37 6.97505
180.110CHERMANNE Cedric40FRACOURS TOUJOURS LEFOREST8:58:598:42 6.90510
181.222TRISTRANT Julien44FRA8:59:208:42 6.90512
182.134KRAUSE Sébastien44FRA9:00:368:44 6.88514
183.321TIRLOY Guillaume43FRA9:01:048:44 6.88515
184.708BUREAU Laurent42FRA9:05:188:48 6.82517
185.113LIEPPE Frédéric46FRALES COUREURS DU LOUPS BLA9:19:329:02 6.65529
186.249BOUCQ Romain41FRA9:22:479:05 6.61533
187.141BRUNELLE Yannick48FRA9:24:379:07 6.59538
188.458TREFIER Eric48FRAPOMPIERS D'ARGENTEUIL9:27:239:10 6.56545
189.593LAINE Christophe42FRA9:29:089:11 6.54546
190.346ZIRNHELD Claude48FRA9:36:039:18 6.46550
DNF4541221640CHAUMET Olivier47FRAACVA SECTION TRAIL
DNF423CLERBOUT Jean Marie45FRATC LIEVIN
DNF583CULOT Stephane45BELJRT (JACOBS RUNNING TEAM)
DNF6931907917DASSONVILLE Frederic47FRAJC LAPUGNOY
DNF437DE NEVE Alain43FRA
DNF427DUPUIS Emmanuel49FRA
DNF28FASQUEL Fabrice48FRA
DNF55LACAILLE Jérôme43FRA
DNF192LEFEVRE François41FRAVALEF TRAIL TEAM
DNF5451738355LEPERCQ David41FRACHIERRY J'Y COURS
DNF668MORIN Vincent47FRASPORT ÉVASION DES DEUX CA
DNF2RIVET Jean-Francois43DECATHLON ST-MARTIN
DNF483SENHADJI Youssef49FRA
DNF667VERGER LECOCQ Christophe46FRA
DNF: abandon; DSQ: disqualifié; Vitesse en km/h
Seite: [1]